Location: Grantsboro
(35.1404°N, 76.8424°W)
Time: 09:12:44
(UTC+00:00)

USA 116 - Pass Details

Date: 18 January 2020
Orbit: 405 x 834 km, 97.9° (Epoch: 18 November)

Event Time Altitude Azimuth Distance (km) Brightness Sun altitude
Rises 10:37:28 0° 162° (SSE) 3,252 8.1 -19.6°
Reaches altitude 10° 10:39:52 10° 160° (SSE) 2,295 7.3 -19.2°
Maximum altitude 10:44:56 74° 76° (ENE) 753 4.4 -18.1°
Drops below altitude 10° 10:49:34 10° 352° (N) 2,099 6.5 -17.2°
Enters shadow 10:51:33 - 351° (N) 2,900 7.2 -16.8°
